(144) Vibilia
ephemeris date magn radius delta ra dec elong phase
Today18 Sep 202514.13.279 AU4.253 AU12h30m+00°20'12.5°3.8°
Opposition5 May 202612.33.110 AU2.103 AU14h56m-12°56'176.2°1.2°
(144) Vibilia - 2025-09-18
astro.vanbuitenen.nl


 
-1 year
-1 month
-1 day
Now
+1 day
+1 month
+1 year

The interactive orbit chart above shows the body's path through the solar system and its position at the given date. Green and blue lines are shown perpendicular to the ecliptic plane: Green if the path is above the ecliptic plane, blue if it is below. (Left-click and drag to rotate the view; Right-click and drag to move the view; Use scroll wheel to zoom in our out.)

The orbital elements of Vibilia are:

            e (Eccentricity)                : 0.2357376
            a (Semimajor axis)              : 2.6531771
            i (Inclination)                 : 4.81608
            Ω (Longitude of ascending node) : 76.16224
            ω (Argument of perihelion)      : 294.44808
            M (Mean anomaly)                : 148.91831
            Epoch                           : 2025 May 05

            L (Longitude of perihelion)     : 10.68676
            B (Latitude of perihelion)      : -4.38337
            P (Orbital period in years)     : 4.32            
        

The light curve chart below shows the estimated development of the minor planet's magnitude.


The all-sky chart below shows the path of the minor planet over the same period as the light curve. The current position is marked yellow.





The following chart shows the path of the minor planet in the next few days. The field of view is optimized for (~10x50) binoculars and finderscopes. A more printer-friendly version of the same chart can be found below.




Ephemerides:
Date       Time       RA (2000)    DEC (2000)    delta   radius  elong  phase   PA    magn
2025-09-18 00:00 UT   12 30 58.6   +00 20 02     4.253    3.279   12.5    3.8    98   14.1 
2025-09-18 02:35 UT   12 31 06.5   +00 19 08     4.253    3.279   12.4    3.8    98   14.1 
2025-09-19 00:00 UT   12 32 12.6   +00 11 41     4.255    3.279   11.8    3.6    97   14.1 
2025-09-20 00:00 UT   12 33 26.7   +00 03 21     4.258    3.279   11.2    3.4    96   14.1 
2025-09-21 00:00 UT   12 34 40.9   +00 04 59     4.260    3.279   10.6    3.2    95   14.1 
2025-09-22 00:00 UT   12 35 55.1   +00 13 18     4.262    3.279   10.0    3.1    94   14.1 
2025-09-23 00:00 UT   12 37 09.5   +00 21 38     4.264    3.279    9.4    2.9    92   14.1 
2025-09-24 00:00 UT   12 38 24.0   +00 29 56     4.266    3.279    8.8    2.7    91   14.1 
2025-09-25 00:00 UT   12 39 38.5   +00 38 15     4.268    3.278    8.2    2.5    89   14.1 
2025-09-26 00:00 UT   12 40 53.2   +00 46 33     4.270    3.278    7.6    2.3    87   14.1 
2025-09-27 00:00 UT   12 42 07.9   +00 54 50     4.271    3.278    7.1    2.2    85   14.1 
2025-09-28 00:00 UT   12 43 22.6   -01 03 07     4.272    3.278    6.5    2.0    82   14.0 
2025-09-29 00:00 UT   12 44 37.5   -01 11 23     4.273    3.278    6.0    1.8    79   14.0 
2025-09-30 00:00 UT   12 45 52.4   -01 19 39     4.274    3.278    5.4    1.7    76   14.0 
2025-10-01 00:00 UT   12 47 07.3   -01 27 54     4.274    3.278    4.9    1.5    71   14.0 
2025-10-02 00:00 UT   12 48 22.4   -01 36 08     4.275    3.278    4.5    1.4    66   14.0 
2025-10-03 00:00 UT   12 49 37.4   -01 44 21     4.275    3.278    4.1    1.2    59   14.0 
2025-10-04 00:00 UT   12 50 52.6   -01 52 34     4.275    3.278    3.7    1.1    51   14.0 
2025-10-05 00:00 UT   12 52 07.8   -02 00 46     4.275    3.278    3.5    1.1    42   14.0 
2025-10-06 00:00 UT   12 53 23.0   -02 08 57     4.275    3.278    3.3    1.0    31   14.0 
2025-10-07 00:00 UT   12 54 38.3   -02 17 07     4.275    3.277    3.3    1.0    20   14.0 
2025-10-08 00:00 UT   12 55 53.7   -02 25 17     4.274    3.277    3.4    1.0     9   14.0 
2025-10-09 00:00 UT   12 57 09.0   -02 33 25     4.274    3.277    3.6    1.1   359   14.0 
2025-10-10 00:00 UT   12 58 24.5   -02 41 33     4.273    3.277    3.9    1.2   350   14.0 
2025-10-11 00:00 UT   12 59 39.9   -02 49 39     4.272    3.277    4.3    1.3   343   14.0 
2025-10-12 00:00 UT   13 00 55.5   -02 57 45     4.271    3.277    4.7    1.4   336   14.0 


    Terminology:
            
    delta:  distance between minor planet and earth in AU
    radius: distance between minor planet and sun in AU
    magn:   magnitude (brightness) estimate    
    ra:     right ascension in hours (24h = 360deg)
    dec:    declination in degrees
    elong:  elongation in degrees (angle sun-earth-minor planet)    
    phase:  phase angle in degrees (angle sun-minor planet-earth)        
    AU:     Astronomical Unit (mean distance between earth and sun: 149597870.7 km
    

Orbital elements provided by the MPC (Minor Planet Center).
Calculations by a modified version of AAPlus, a C# implementation of the AA+ project by PJ Naughter from the algorithms presented in the book "Astronomical Algorithms" by Jean Meeus.
NGC2000 dso catalog and star labels from VizieR as provided by the Strasbourg astronomical Data Center.
Tycho2 catalog from the ESO archive.